COSMOS 2251 DEB, 36385

Orbit data source: Space-Track

COSMOS 2251 DEB, 36385 is space debris in LEO originally from a launch on Wed, 16 Jun 1993 UTC launched from the Plesetsk Missile And Space Complex (PKMTR). The debris from Iridium 33, an American commercial communications satellite, has been tracked extensively since its accidental collision with the defunct Russian satellite Cosmos 2251 in 2009. This event, occurring at high speed in low Earth orbit (LEO), generated thousands of pieces of space debris, significantly increasing the risk of further collisions. The Iridium 33 debris cloud has impacted space traffic management and orbital debris mitigation strategies, making it a subject of ongoing study in space situational awareness.

Loading next visibility...
Identifier
36385, 1993-036AZN
Orbit
LEO
Country
Flag of CISCIS
Related business
Manufacturer
Unknown
Mission
Spacecraft
Bus & Motor
Unknown
Mass
Unknown
Launch date (UTC)
1993-06-16 (33 years ago)
Launch vehicle
Unknown
Launch site
Plesetsk Missile And Space Complex (PKMTR)
Object type
Payload
Rocket body
Debris
Shape & HBR
Unknown shape, 0.1 m
Radar Cross Section
Small (<0.1 m²)

Expand to show TLE details & history
Last TLE update: 19 hours ago

TLE from 19 hours ago
0 COSMOS 2251 DEB
1 36385U 93036AZN 26119.75401800  .00007991  00000-0  10058-2 0  9992
2 36385  73.9688 243.8861 0134497  25.1132 335.6501 14.75924833871366
Epoch: 2026-04-29T18:05Z
TLE epoch observation values (Epoch: 2026-04-29T18:05:47.155Z)
Latitude
0.00002°
Longitude
114.72918°
Altitude
559.055 km
Speed
7.628 km/s
True Right ascension
16h 15m 32s
True Declination
0° 00' 00"
Sunlit
Object was in full shadow at epoch
Visualization orbit readout
Latitude
Unknown
Longitude
Unknown
Altitude
Unknown
Speed
Unknown
Apparent Right ascension
Unknown
Apparent Declination
Unknown
Sunlit
N/A
Visualization observer readout
Local Sidereal Time
21:07:16
Azimuth
Unknown
Elevation
Unknown
Doppler factor
Unknown
Orbital elements
Apogee altitude
734.191 km
Perigee altitude
545.413 km
Semi-major axis
7,017.939 km
Eccentricity
0.01345
Inclination
73.9688°
RAAN
243.8861°
Arg. of periapsis
25.1132°
True anomaly
335.00478°
Mean anomaly
335.6501°
Eccentric anomaly
335.32843°
Mean motion
3.69172 °/min
Orbital period
97.52 mins
BSTAR
0.0010058
Loading maneuver chart data...
Computing Atmospheric mass density...

Documentation

Showing up to 5 results
|